Observations
| Time | Sensor | AQI | SAQ | Temp °C | Hum % | Pres Pa | CO μg/m³ | H₂S μg/m³ | NO μg/m³ | NO₂ μg/m³ | O₃ μg/m³ | SO₂ μg/m³ | CO₂e PPM | VOC PPM | PM1 μg/m³ | PM2.5 μg/m³ | PM4 μg/m³ | PM10 μg/m³ | TPS µm |
|---|---|---|---|---|---|---|---|---|---|---|---|---|---|---|---|---|---|---|---|
| Tuesday 11 August 2026 | |||||||||||||||||||
| 06:42 | Trim Market St | 2 | 12.7 | 75 | 43,590 | 0.42 | 0 | 3.74 | 15.74 | 37.82 | 0 | 2.14 | 3.76 | 6.94 | |||||
| 06:42 | Trim Patrick St | 1 | 11.3 | 82 | 38,460 | 0.42 | 2.55 | 3.9 | 30.13 | 1.34 | 0 | 4.57 | 8.55 | 9.4 | |||||
| 06:41 | Trim Patrick St | 1 | 11.2 | 82 | 38,460 | 0.43 | 3.11 | 3.97 | 34.56 | 0 | 0 | 5.43 | 9.24 | 10.17 | |||||
| 06:40 | Trim Patrick St | 1 | 11.2 | 82 | 38,460 | 0.43 | 1.82 | 3.92 | 28.49 | 2.31 | 0 | 4.57 | 8.54 | 9.39 | |||||
| 06:39 | Trim Market St | 2 | 12.6 | 75 | 43,603 | 0.43 | 0 | 3.79 | 16.56 | 23.84 | 0 | 2.14 | 3.28 | 6.34 | |||||
| 06:39 | Trim Patrick St | 1 | 11.2 | 82 | 38,460 | 0.43 | 2.44 | 3.89 | 33.71 | 0 | 0 | 3.71 | 7.15 | 7.86 | |||||
| 06:38 | Trim Market St | 2 | 12.6 | 75 | 43,743 | 0.46 | 0 | 3.79 | 18.86 | 25.63 | 0 | 2.14 | 3.76 | 6.94 | |||||
| 06:38 | Trim Patrick St | 1 | 11.2 | 82 | 38,460 | 0.43 | 1.87 | 3.89 | 28.92 | 3.18 | 0 | 2.86 | 6.45 | 7.1 | |||||
| 06:37 | Trim Market St | 2 | 12.6 | 75 | 43,846 | 0.44 | 0 | 3.72 | 18.54 | 19.63 | 0 | 2.14 | 3.76 | 6.34 | |||||
| 06:37 | Trim Patrick St | 1 | 11.2 | 82 | 38,460 | 0.42 | 2.21 | 3.86 | 28.92 | 2.18 | 0 | 2.86 | 6.45 | 7.1 | |||||
| 06:36 | Trim Patrick St | 1 | 11.1 | 82 | 38,460 | 0.43 | 1.74 | 3.9 | 30.29 | 0.96 | 0 | 4.57 | 7.84 | 8.63 | |||||
| 06:35 | Trim Patrick St | 1 | 11.1 | 82 | 38,460 | 0.43 | 2 | 3.82 | 29.85 | 1.9 | 0 | 4.57 | 7.84 | 8.63 | |||||
| 06:34 | Trim Patrick St | 1 | 11.1 | 82 | 38,460 | 0.43 | 1.77 | 3.93 | 29.42 | 1.05 | 0 | 5.43 | 8.54 | 9.39 | |||||
| 06:33 | Trim Market St | 2 | 12.6 | 75 | 44,301 | 0.49 | 0 | 3.84 | 15.37 | 27.02 | 0 | 2.85 | 4.23 | 7.53 | |||||
| 06:33 | Trim Patrick St | 1 | 11.1 | 82 | 38,460 | 0.43 | 1.41 | 4 | 26.44 | 3.65 | 0 | 3.71 | 7.84 | 8.63 | |||||
| 06:32 | Trim Patrick St | 1 | 11.1 | 82 | 38,460 | 0.42 | 2.18 | 3.98 | 27.73 | 3.5 | 0 | 4.57 | 8.53 | 9.39 | |||||
| 06:31 | Trim Patrick St | 1 | 11.1 | 82 | 38,460 | 0.43 | 2.46 | 3.87 | 34.64 | 0 | 0 | 4.57 | 9.23 | 10.16 | |||||
| 06:30 | Trim Patrick St | 1 | 11 | 82 | 38,460 | 0.43 | 2.13 | 3.86 | 29.93 | 0.75 | 0 | 3.71 | 7.84 | 8.62 | |||||
| 06:29 | Trim Patrick St | 1 | 11 | 82 | 38,460 | 0.43 | 2.23 | 3.84 | 28.63 | 2.88 | 0 | 3.71 | 7.15 | 7.86 | |||||
| 06:28 | Trim Patrick St | 1 | 11 | 82 | 38,460 | 0.44 | 2.43 | 3.89 | 34.27 | 0 | 0 | 2.86 | 7.15 | 7.86 | |||||